Find NEXTSAT-2

NORAD ID: 56743 Int'l Des: 2023-072 Owner: KAIST Country: KR operational
LEOCIRCULARRETROGRADESSO

当前视图

正在加载3D地球...

About NEXTSAT-2

NEXTSAT-2 (NORAD 56743) is a satellite launched May 25, 2023 by KAIST of KR. It operates in LEO, CIRCULAR, RETROGRADE, SSO orbit with a mass of 180.00 kg.

即将过境

Passes for default location (London). Set your location on the main map for personalized predictions.

高度历史

Loading altitude history...

两行轨道根数

1 56743U 23072A 26195.60903688 .00003775 00000-0 14046-3 0 9992
2 56743 97.5234 32.8523 0004119 284.9529 75.1254 15.28132434173787
Epoch: Jul 14, 2026 • Age: 8 hours

当前状态

高度 497.3 km
远地点 / 近地点 N/A
速度 7.62 km/s
星下点 -47.31°S, 134.57°E
发射日期 May 25, 2023
运行时间 3.1 years
类型 other

技术详情

分类 Payload
质量 180.00 kg
干质量 180.00 kg
总质量 180.00 kg
长度 0.97 m
直径 1.34 m
跨度 5.20 m
形状 Box+pan
制造商 SATREC
平台类型 NEXTSat
阶段状态 In Orbit
所有者/国家 KAIST/KR

Most Searched